Weather History for KCQW - March, 2014

Change the Weather History Date:

Friday, March 14, 2014

  Actual Average (KFLO) Record (KFLO)
Temperature  
Mean Temperature 42 °F 55 °F  
Max Temperature 62 °F 67 °F 85 °F (1985)
Min Temperature 23 °F 43 °F 25 °F (1960)
Degree Days  
Heating Degree Days 22 10  
Month to date heating degree days 168  
Since 1 July heating degree days 2234  
Cooling Degree Days 0 1  
Month to date cooling degree days 1  
Year to date cooling degree days 7  
Moisture  
Dew Point 19 °F    
Average Humidity 48    
Maximum Humidity 100    
Minimum Humidity 14    
Precipitation  
Precipitation 0.00 in 0.11 in 1.99 in (1997)
Month to date precipitation 1.56  
Year to date precipitation 7.71  
Sea Level Pressure  
Sea Level Pressure 30.24 in    
Wind  
Wind Speed - (North)    
Max Wind Speed -    
Max Gust Speed -    
Visibility 10 miles    
Events      
T = Trace of Precipitation, MM = Missing Value Source: NWS Daily Summary

Daily Weather History Graph

Daily Weather History Graph

Search for Another Location

Airport or City:

Trip Planner

Search our weather history database for the weather conditions in past years. The results will help you decide how hot, cold, wet, or windy it might be!

Date:

Astronomy

Mar. 14, 2014 Rise Set
Actual Time 7:31 AM EDT 7:26 PM EDT
Civil Twilight 7:06 AM EDT 7:51 PM EDT
Nautical Twilight 6:37 AM EDT 8:21 PM EDT
Astronomical Twilight 6:08 AM EDT 8:50 PM EDT
Moon 5:50 PM EDT (3/14) 6:07 AM EDT (3/14)
Length of Visible Light 12h 45m
Length of Day
11h 54m
Waxing Gibbous, 96% of the Moon is Illuminated
Mar 14
Waxing Gibbous
Mar 16
Full
Mar 23
Last Quarter
Mar 30
New
Apr 7
First Quarter

Hourly Weather History & Observations

Time (EDT) Temp. Dew Point Humidity Pressure Visibility Wind Dir Wind Speed Gust Speed Precip Events Conditions
12:15 AM 32.0 °F 15.8 °F 51% 30.24 in 10.0 mi North - - N/A   Clear
12:35 AM 28.4 °F 19.4 °F 69% 30.25 in 10.0 mi North - - N/A   Clear
12:55 AM 28.4 °F 15.8 °F 59% 30.25 in 10.0 mi North - - N/A   Clear
1:15 AM 28.4 °F 19.4 °F 69% 30.25 in 10.0 mi North - - N/A   Clear
1:35 AM 26.6 °F 23.0 °F 86% 30.25 in 10.0 mi North - - N/A   Clear
1:55 AM 26.6 °F 23.0 °F 86% 30.25 in 10.0 mi North - - N/A   Clear
2:15 AM 24.8 °F 24.8 °F 100% 30.25 in 10.0 mi North - - N/A   Clear
2:35 AM 26.6 °F 23.0 °F 86% 30.25 in 10.0 mi North - - N/A   Clear
2:55 AM 28.4 °F 21.2 °F 74% 30.26 in 10.0 mi North - - N/A   Clear
3:15 AM 26.6 °F 23.0 °F 86% 30.26 in 10.0 mi North - - N/A   Clear
3:35 AM 26.6 °F 24.8 °F 93% 30.26 in 10.0 mi North - - N/A   Clear
3:55 AM 24.8 °F 23.0 °F 93% 30.26 in 10.0 mi North - - N/A   Clear
4:15 AM 26.6 °F 23.0 °F 86% 30.27 in 10.0 mi North - - N/A   Clear
4:35 AM 26.6 °F 21.2 °F 80% 30.27 in 10.0 mi North - - N/A   Clear
4:55 AM 24.8 °F 23.0 °F 93% 30.28 in 10.0 mi North - - N/A   Clear
5:15 AM 24.8 °F 23.0 °F 93% 30.28 in 10.0 mi North - - N/A   Clear
5:35 AM 24.8 °F 23.0 °F 93% 30.29 in 10.0 mi North - - N/A   Clear
5:55 AM 24.8 °F 23.0 °F 93% 30.30 in 10.0 mi North - - N/A   Clear
6:15 AM 24.8 °F 23.0 °F 93% 30.29 in 10.0 mi North - - N/A   Clear
6:35 AM 24.8 °F 23.0 °F 93% 30.30 in 10.0 mi North - - N/A   Clear
6:55 AM 24.8 °F 23.0 °F 93% 30.30 in 10.0 mi North - - N/A   Clear
7:15 AM 23.0 °F 21.2 °F 93% 30.31 in 10.0 mi North - - N/A   Clear
7:35 AM 23.0 °F 21.2 °F 93% 30.31 in 10.0 mi North - - N/A   Clear
8:15 AM 24.8 °F 24.8 °F 100% 30.33 in 10.0 mi North - - N/A   Clear
8:35 AM 28.4 °F 26.6 °F 93% 30.32 in 10.0 mi North - - N/A   Clear
8:55 AM 30.2 °F 26.6 °F 86% 30.33 in 10.0 mi North - - N/A   Clear
9:15 AM 32.0 °F 26.6 °F 80% 30.33 in 10.0 mi North - - N/A   Clear
9:35 AM 37.4 °F 24.8 °F 60% 30.34 in 10.0 mi North - - N/A   Clear
9:55 AM 39.2 °F 19.4 °F 45% 30.34 in 10.0 mi North - - N/A   Clear
10:15 AM 41.0 °F 17.6 °F 39% 30.35 in 10.0 mi North - - N/A   Clear
10:35 AM 44.6 °F 15.8 °F 31% 30.34 in 10.0 mi North - - N/A   Clear
10:55 AM 48.2 °F 6.8 °F 19% 30.34 in 10.0 mi North - - N/A   Clear
11:15 AM 50.0 °F 6.8 °F 17% 30.34 in 10.0 mi North - - N/A   Clear
11:35 AM 51.8 °F 8.6 °F 18% 30.34 in 10.0 mi North - - N/A   Clear
11:55 AM 53.6 °F 8.6 °F 16% 30.34 in 10.0 mi North - - N/A   Clear
12:15 PM 53.6 °F 8.6 °F 16% 30.34 in 10.0 mi North - - N/A   Clear
12:35 PM 53.6 °F 8.6 °F 16% 30.33 in 10.0 mi North - - N/A   Clear
12:55 PM 55.4 °F 8.6 °F 15% 30.32 in 10.0 mi North - - N/A   Clear
1:15 PM 55.4 °F 10.4 °F 17% 30.31 in 10.0 mi North - - N/A   Clear
1:35 PM 57.2 °F 10.4 °F 16% 30.30 in 10.0 mi North - - N/A   Clear
1:55 PM 57.2 °F 10.4 °F 16% 30.28 in 10.0 mi North - - N/A   Clear
2:15 PM 59.0 °F 10.4 °F 15% 30.26 in 10.0 mi North - - N/A   Clear
2:35 PM 59.0 °F 10.4 °F 15% 30.25 in 10.0 mi North - - N/A   Clear
2:55 PM 59.0 °F 12.2 °F 16% 30.24 in 10.0 mi North - - N/A   Clear
3:15 PM 60.8 °F 14.0 °F 16% 30.22 in 10.0 mi North - - N/A   Clear
3:35 PM 60.8 °F 12.2 °F 15% 30.21 in 10.0 mi North - - N/A   Clear
3:55 PM 60.8 °F 12.2 °F 15% 30.19 in 10.0 mi North - - N/A   Clear
4:15 PM 62.6 °F 12.2 °F 14% 30.19 in 10.0 mi North - - N/A   Clear
4:35 PM 62.6 °F 14.0 °F 15% 30.18 in 10.0 mi North - - N/A   Clear
4:55 PM 62.6 °F 14.0 °F 15% 30.17 in 10.0 mi North - - N/A   Clear
5:15 PM 62.6 °F 14.0 °F 15% 30.16 in 10.0 mi North - - N/A   Clear
5:35 PM 62.6 °F 14.0 °F 15% 30.15 in 10.0 mi North - - N/A   Clear
5:55 PM 62.6 °F 15.8 °F 16% 30.14 in 10.0 mi North - - N/A   Clear
6:15 PM 60.8 °F 15.8 °F 17% 30.14 in 10.0 mi North - - N/A   Clear
6:35 PM 59.0 °F 15.8 °F 19% 30.14 in 10.0 mi North - - N/A   Clear
6:55 PM 59.0 °F 17.6 °F 20% 30.14 in 10.0 mi North - - N/A   Clear
7:15 PM 57.2 °F 17.6 °F 21% 30.14 in 10.0 mi North - - N/A   Clear
7:35 PM 55.4 °F 19.4 °F 25% 30.14 in 10.0 mi North - - N/A   Clear
7:55 PM 55.4 °F 19.4 °F 25% 30.15 in 10.0 mi North - - N/A   Clear
8:15 PM 53.6 °F 21.2 °F 28% 30.15 in 9.0 mi North - - N/A   Clear
8:35 PM 53.6 °F 23.0 °F 30% 30.15 in 10.0 mi North - - N/A   Clear
8:55 PM 53.6 °F 23.0 °F 30% 30.14 in 10.0 mi North - - N/A   Clear
9:15 PM 53.6 °F 23.0 °F 30% 30.13 in 10.0 mi North - - N/A   Clear
9:35 PM 51.8 °F 24.8 °F 35% 30.13 in 10.0 mi North - - N/A   Clear
9:55 PM 50.0 °F 24.8 °F 37% 30.14 in 10.0 mi North - - N/A   Clear
10:15 PM 50.0 °F 26.6 °F 40% 30.14 in 10.0 mi North - - N/A   Clear
10:35 PM 50.0 °F 28.4 °F 43% 30.14 in 10.0 mi North - - N/A   Clear
10:55 PM 50.0 °F 32.0 °F 50% 30.14 in 10.0 mi North - - N/A   Clear
11:15 PM 51.8 °F 32.0 °F 47% 30.14 in 10.0 mi North - - N/A   Clear
11:35 PM 53.6 °F 33.8 °F 47% 30.14 in 10.0 mi North - - N/A   Clear
11:55 PM 53.6 °F 35.6 °F 51% 30.14 in 10.0 mi North - - N/A   Clear